| time (UTC) | temp F | wind direction | speed MPH | gust MPH | rain 1hr in | rain 24hr in | rain mn in | humidity % | barometer mb |
| 20260906111529 | 69 | 123 | 0.0 | 0.0 | 0.00 | 0.16 | 0.16 | 96 | 1012.9 |
| 20260906110008 | 69 | 124 | 0.0 | 0.0 | 0.00 | 0.16 | 0.16 | 96 | 1012.9 |
| 20260906104507 | 70 | 124 | 0.0 | 0.0 | 0.00 | 0.16 | 0.16 | 96 | 1012.6 |
| 20260906103004 | 70 | 1 | 0.0 | 0.0 | 0.00 | 0.16 | 0.16 | 96 | 1012.6 |
| 20260906101507 | 70 | 126 | 0.0 | 0.0 | 0.00 | 0.16 | 0.16 | 96 | 1012.7 |
| 20260906100045 | 70 | 126 | 0.0 | 0.0 | 0.00 | 0.16 | 0.16 | 95 | 1012.6 |
| 20260906094544 | 70 | 126 | 0.0 | 0.0 | 0.00 | 0.16 | 0.16 | 96 | 1012.8 |
| 20260906093036 | 70 | 148 | 0.0 | 0.0 | 0.00 | 0.16 | 0.16 | 95 | 1012.7 |
| 20260906091524 | 71 | 148 | 0.0 | 0.0 | 0.00 | 0.16 | 0.16 | 95 | 1012.5 |
| 20260906090017 | 71 | 148 | 0.0 | 0.0 | 0.00 | 0.16 | 0.16 | 95 | 1012.4 |
| 20260906084505 | 72 | 148 | 0.0 | 0.0 | 0.00 | 0.16 | 0.16 | 94 | 1012.1 |
| 20260906083047 | 72 | 148 | 0.0 | 0.0 | 0.00 | 0.16 | 0.16 | 94 | 1012.3 |
| 20260906081552 | 72 | 146 | 0.0 | 1.0 | 0.00 | 0.16 | 0.16 | 94 | 1012.3 |
| 20260906080027 | 73 | 155 | 0.0 | 2.0 | 0.00 | 0.16 | 0.16 | 93 | 1012.3 |
| 20260906074528 | 73 | 111 | 0.0 | 2.0 | 0.00 | 0.16 | 0.16 | 93 | 1012.4 |
| 20260906073009 | 73 | 150 | 0.0 | 2.0 | 0.00 | 0.16 | 0.16 | 94 | 1012.4 |
| 20260906071610 | 73 | 82 | 0.0 | 2.0 | 0.00 | 0.16 | 0.16 | 94 | 1012.6 |
| 20260906070057 | 73 | 144 | 0.0 | 1.0 | 0.00 | 0.16 | 0.16 | 94 | 1012.5 |
| 20260906064556 | 73 | 146 | 0.0 | 0.0 | 0.00 | 0.16 | 0.16 | 94 | 1012.3 |
| 20260906063056 | 73 | 208 | 0.0 | 2.0 | 0.00 | 0.16 | 0.16 | 94 | 1012.5 |
| 20260906061555 | 73 | 200 | 0.0 | 2.0 | 0.00 | 0.16 | 0.16 | 94 | 1012.9 |
| 20260906060054 | 73 | 202 | 0.0 | 1.0 | 0.00 | 0.16 | 0.16 | 94 | 1012.8 |
| 20260906054554 | 73 | 201 | 0.0 | 0.0 | 0.00 | 0.16 | 0.16 | 94 | 1013.2 |
| 20260906053053 | 73 | 199 | 0.0 | 3.0 | 0.00 | 0.16 | 0.16 | 93 | 1013.4 |
| 20260906051602 | 73 | 230 | 3.0 | 5.0 | 0.11 | 0.16 | 0.16 | 93 | 1014.0 |
| 20260906050105 | 73 | 215 | 1.0 | 4.0 | 0.16 | 0.16 | 0.16 | 92 | 1014.2 |
| 20260906044541 | 74 | 63 | 1.0 | 4.0 | 0.16 | 0.16 | 0.16 | 91 | 1013.7 |
| 20260906043046 | 75 | 247 | 0.0 | 3.0 | 0.16 | 0.16 | 0.16 | 88 | 1014.0 |
| 20260906041518 | 77 | 28 | 1.0 | 4.0 | 0.04 | 0.04 | 0.04 | 82 | 1014.0 |
| 20260906040030 | 78 | 309 | 1.0 | 8.0 | 0.00 | 0.00 | 0.00 | 79 | 1013.6 |
| 20260906034505 | 75 | 31 | 6.0 | 13.0 | 0.00 | 0.00 | 0.00 | 87 | 1013.7 |
| 20260906033005 | 75 | 50 | 0.0 | 0.0 | 0.00 | 0.00 | 0.00 | 87 | 1013.1 |
| 20260906031504 | 75 | 41 | 0.0 | 0.0 | 0.00 | 0.00 | 0.00 | 87 | 1012.5 |
| 20260906030004 | 75 | 39 | 0.0 | 0.0 | 0.00 | 0.00 | 0.00 | 86 | 1012.6 |
| 20260906024503 | 75 | 49 | 0.0 | 0.0 | 0.00 | 0.00 | 0.00 | 86 | 1012.5 |
| 20260906023003 | 75 | 31 | 0.0 | 0.0 | 0.00 | 0.00 | 0.00 | 85 | 1012.2 |
| 20260906021503 | 75 | 37 | 0.0 | 0.0 | 0.00 | 0.00 | 0.00 | 85 | 1012.0 |
| 20260906020002 | 75 | 11 | 0.0 | 0.0 | 0.00 | 0.00 | 0.00 | 83 | 1011.8 |
| 20260906014544 | 76 | 44 | 0.0 | 0.0 | 0.00 | 0.00 | 0.00 | 80 | 1011.6 |
| 20260906013101 | 77 | 44 | 0.0 | 0.0 | 0.00 | 0.00 | 0.00 | 77 | 1011.4 |
| 20260906011526 | 78 | 70 | 0.0 | 4.0 | 0.00 | 0.00 | 0.00 | 74 | 1011.5 |
| 20260906010029 | 78 | 224 | 0.0 | 1.0 | 0.00 | 0.00 | 0.00 | 73 | 1011.7 |
| 20260906004507 | 79 | 164 | 0.0 | 2.0 | 0.00 | 0.00 | 0.00 | 72 | 1011.7 |
| 20260906003007 | 81 | 232 | 1.0 | 8.0 | 0.00 | 0.00 | 0.00 | 69 | 1012.1 |
| 20260906001549 | 85 | 310 | 3.0 | 13.0 | 0.00 | 0.00 | 0.00 | 63 | 1012.4 |
| 20260906000058 | 88 | 286 | 0.0 | 2.0 | 0.00 | 0.00 | 0.00 | 62 | 1011.8 |
| 20260905234530 | 89 | 160 | 0.0 | 2.0 | 0.00 | 0.00 | 0.00 | 59 | 1011.3 |
| 20260905233039 | 90 | 124 | 1.0 | 4.0 | 0.00 | 0.00 | 0.00 | 58 | 1011.2 |
| 20260905231522 | 91 | 146 | 1.0 | 6.0 | 0.00 | 0.00 | 0.00 | 55 | 1011.0 |
| 20260905230019 | 93 | 128 | 2.0 | 4.0 | 0.00 | 0.00 | 0.00 | 53 | 1010.9 |
| 20260905224553 | 94 | 120 | 2.0 | 4.0 | 0.00 | 0.00 | 0.00 | 50 | 1011.1 |
| 20260905223053 | 94 | 81 | 1.0 | 4.0 | 0.00 | 0.00 | 0.00 | 50 | 1011.2 |
| 20260905221533 | 94 | 135 | 2.0 | 6.0 | 0.00 | 0.00 | 0.00 | 50 | 1011.2 |
| 20260905220033 | 93 | 77 | 3.0 | 6.0 | 0.00 | 0.00 | 0.00 | 50 | 1011.3 |
| 20260905214515 | 93 | 72 | 5.0 | 7.0 | 0.00 | 0.00 | 0.00 | 52 | 1011.4 |
| 20260905213014 | 93 | 95 | 1.0 | 6.0 | 0.00 | 0.00 | 0.00 | 53 | 1011.4 |
| 20260905211553 | 92 | 37 | 4.0 | 9.0 | 0.00 | 0.00 | 0.00 | 53 | 1011.6 |
| 20260905210104 | 92 | 43 | 5.0 | 9.0 | 0.00 | 0.00 | 0.00 | 52 | 1011.5 |
| 20260905204536 | 91 | 257 | 0.0 | 4.0 | 0.00 | 0.00 | 0.00 | 54 | 1011.5 |
| 20260905203037 | 90 | 87 | 3.0 | 6.0 | 0.00 | 0.00 | 0.00 | 57 | 1011.8 |
| 20260905201514 | 90 | 41 | 4.0 | 8.0 | 0.00 | 0.00 | 0.00 | 62 | 1012.1 |
| 20260905200017 | 90 | 65 | 3.0 | 8.0 | 0.00 | 0.00 | 0.00 | 63 | 1012.2 |
| 20260905194554 | 94 | 59 | 4.0 | 12.0 | 0.00 | 0.00 | 0.00 | 53 | 1012.2 |
| 20260905193053 | 99 | 31 | 5.0 | 8.0 | 0.00 | 0.00 | 0.00 | 45 | 1012.3 |
| 20260905191536 | 98 | 152 | 1.0 | 6.0 | 0.00 | 0.00 | 0.00 | 45 | 1012.5 |
| 20260905190031 | 97 | 298 | 3.0 | 9.0 | 0.00 | 0.00 | 0.00 | 48 | 1012.6 |
| 20260905184520 | 97 | 240 | 3.0 | 7.0 | 0.00 | 0.00 | 0.00 | 49 | 1012.7 |
| 20260905183015 | 98 | 212 | 1.0 | 5.0 | 0.00 | 0.00 | 0.00 | 48 | 1012.9 |
| 20260905181516 | 97 | 179 | 2.0 | 5.0 | 0.00 | 0.00 | 0.00 | 50 | 1013.1 |
| 20260905180008 | 96 | 278 | 2.0 | 6.0 | 0.00 | 0.00 | 0.00 | 50 | 1013.4 |
| 20260905174515 | 96 | 232 | 2.0 | 6.0 | 0.00 | 0.00 | 0.00 | 52 | 1013.5 |
| 20260905173002 | 96 | 9 | 3.0 | 7.0 | 0.00 | 0.00 | 0.00 | 53 | 1013.6 |
| 20260905171634 | 95 | 219 | 1.0 | 7.0 | 0.00 | 0.00 | 0.00 | 54 | 1013.8 |
| 20260905170104 | 94 | 318 | 2.0 | 9.0 | 0.00 | 0.00 | 0.00 | 55 | 1014.0 |
| 20260905164543 | 94 | 160 | 3.0 | 8.0 | 0.00 | 0.00 | 0.00 | 57 | 1014.3 |
| 20260905163036 | 93 | 101 | 4.0 | 7.0 | 0.00 | 0.00 | 0.00 | 59 | 1014.4 |
| 20260905161511 | 92 | 251 | 0.0 | 3.0 | 0.00 | 0.00 | 0.00 | 60 | 1014.5 |
| 20260905160007 | 91 | 256 | 1.0 | 4.0 | 0.00 | 0.00 | 0.00 | 62 | 1014.6 |
| 20260905154601 | 89 | 62 | 1.0 | 2.0 | 0.00 | 0.00 | 0.00 | 69 | 1014.9 |
| 20260905153041 | 86 | 58 | 0.0 | 5.0 | 0.00 | 0.00 | 0.00 | 75 | 1015.0 |
| 20260905151520 | 83 | 7 | 0.0 | 0.0 | 0.00 | 0.00 | 0.00 | 78 | 1015.1 |
| 20260905150024 | 83 | 25 | 0.0 | 0.0 | 0.00 | 0.00 | 0.00 | 79 | 1015.1 |
| 20260905144557 | 81 | 34 | 0.0 | 0.0 | 0.00 | 0.00 | 0.00 | 81 | 1015.2 |
| 20260905143103 | 81 | 32 | 0.0 | 0.0 | 0.00 | 0.00 | 0.00 | 82 | 1015.3 |
| 20260905141537 | 81 | 32 | 0.0 | 0.0 | 0.00 | 0.00 | 0.00 | 82 | 1015.1 |
| 20260905140036 | 81 | 28 | 0.0 | 0.0 | 0.00 | 0.00 | 0.00 | 83 | 1015.2 |
| 20260905134516 | 79 | 23 | 0.0 | 0.0 | 0.00 | 0.00 | 0.00 | 85 | 1015.1 |
| 20260905133010 | 78 | 30 | 0.0 | 0.0 | 0.00 | 0.00 | 0.00 | 87 | 1015.3 |
| 20260905131548 | 76 | 36 | 0.0 | 0.0 | 0.00 | 0.00 | 0.00 | 90 | 1015.4 |
| 20260905130049 | 75 | 36 | 0.0 | 0.0 | 0.00 | 0.00 | 0.00 | 91 | 1015.4 |
| 20260905124526 | 75 | 36 | 0.0 | 0.0 | 0.00 | 0.00 | 0.00 | 93 | 1015.5 |
| 20260905123033 | 73 | 36 | 0.0 | 0.0 | 0.00 | 0.00 | 0.00 | 96 | 1015.4 |
| 20260905121604 | 72 | 19 | 0.0 | 0.0 | 0.00 | 0.00 | 0.00 | 97 | 1015.3 |
| 20260905120100 | 70 | 19 | 0.0 | 0.0 | 0.00 | 0.00 | 0.00 | 96 | 1015.2 |
| 20260905114545 | 70 | 19 | 0.0 | 0.0 | 0.00 | 0.00 | 0.00 | 96 | 1015.2 |
| 20260905113041 | 70 | 19 | 0.0 | 0.0 | 0.00 | 0.00 | 0.00 | 96 | 1014.8 |